• In Uzbekistan
  • List of Countries
  • For 7 days
  • Water Temperature
  • Satellite Maps
  • Weather Map
  • Weather Widgets
  • user-avatar
    Login

    Hourly Weather Vanadzor

    Today, 27 June, Tuesday

    Time Temperature Precipitation Wind Pressure Humidity
    00:00 +13°C° 0 mm 1 mps 638 mmHg 96%
    01:00 +13°C° 0 mm 1 mps 638 mmHg 96%
    02:00 +12°C° 0 mm 1 mps 637 mmHg 97%
    03:00 +12°C° 0 mm 1 mps 637 mmHg 97%
    04:00 +13°C° 0 mm 1 mps 637 mmHg 95%
    05:00 +14°C° 0 mm 1 mps 638 mmHg 93%
    06:00 +15°C° 0 mm 1 mps 638 mmHg 91%
    07:00 +18°C° 0 mm 1 mps 638 mmHg 79%
    08:00 +21°C° 0 mm 1 mps 639 mmHg 68%
    09:00 +23°C° 0 mm 1 mps 639 mmHg 57%
    10:00 +25°C° 0 mm 1 mps 639 mmHg 52%
    11:00 +26°C° 0 mm 2 mps 639 mmHg 48%
    12:00 +28°C° 0 mm 2 mps 639 mmHg 44%
    13:00 +28°C° 0 mm 2 mps 639 mmHg 44%
    14:00 +28°C° 0 mm 2 mps 639 mmHg 44%
    15:00 +29°C° 0 mm 2 mps 638 mmHg 43%
    16:00 +27°C° 0.3 mm 2 mps 638 mmHg 52%
    17:00 +26°C° 0.3 mm 1 mps 638 mmHg 60%
    18:00 +25°C° 0.3 mm 1 mps 637 mmHg 69%
    19:00 +22°C° 0.2 mm 1 mps 636 mmHg 77%
    20:00 +19°C° 0.2 mm 1 mps 636 mmHg 84%
    21:00 +15°C° 0.2 mm 1 mps 635 mmHg 92%
    22:00 +15°C° 0 mm 1 mps 635 mmHg 93%
    23:00 +15°C° 0 mm 1 mps 635 mmHg 94%

    Tomorrow, 28 June, Wednesday

    Time Temperature Precipitation Wind Pressure Humidity
    00:00 +14°C° 0 mm 1 mps 635 mmHg 95%
    01:00 +14°C° 0 mm 1 mps 635 mmHg 95%
    02:00 +14°C° 0 mm 1 mps 635 mmHg 95%
    03:00 +14°C° 0 mm 1 mps 635 mmHg 95%
    04:00 +15°C° 0 mm 1 mps 636 mmHg 93%
    05:00 +16°C° 0 mm 1 mps 636 mmHg 91%
    06:00 +18°C° 0 mm 1 mps 636 mmHg 89%
    07:00 +20°C° 0 mm 1 mps 637 mmHg 77%
    08:00 +23°C° 0 mm 1 mps 637 mmHg 66%
    09:00 +26°C° 0 mm 1 mps 638 mmHg 54%
    10:00 +27°C° 0.1 mm 1 mps 638 mmHg 51%
    11:00 +28°C° 0.1 mm 1 mps 638 mmHg 48%
    12:00 +29°C° 0.1 mm 1 mps 638 mmHg 45%
    13:00 +29°C° 0.3 mm 1 mps 638 mmHg 47%
    14:00 +29°C° 0.3 mm 1 mps 637 mmHg 49%
    15:00 +29°C° 0.3 mm 1 mps 637 mmHg 51%
    16:00 +27°C° 0.5 mm 1 mps 636 mmHg 57%
    17:00 +26°C° 0.5 mm 2 mps 636 mmHg 63%
    18:00 +25°C° 0.5 mm 2 mps 636 mmHg 69%
    19:00 +21°C° 0.3 mm 2 mps 635 mmHg 75%
    20:00 +19°C° 0.3 mm 1 mps 635 mmHg 82%
    21:00 +16°C° 0.3 mm 1 mps 635 mmHg 88%
    22:00 +15°C° 0.2 mm 1 mps 635 mmHg 89%
    23:00 +15°C° 0.2 mm 1 mps 635 mmHg 89%

    Day after tomorrow, 29 June, Thursday

    Time Temperature Precipitation Wind Pressure Humidity
    00:00 +14°C° 0.2 mm 1 mps 634 mmHg 89%
    01:00 +14°C° 0.5 mm 1 mps 634 mmHg 90%
    02:00 +14°C° 0.5 mm 1 mps 634 mmHg 91%
    03:00 +13°C° 0.5 mm 1 mps 634 mmHg 92%
    04:00 +14°C° 0.3 mm 1 mps 635 mmHg 91%
    05:00 +15°C° 0.3 mm 1 mps 635 mmHg 90%
    06:00 +16°C° 0.3 mm 1 mps 636 mmHg 90%
    07:00 +19°C° 0.1 mm 1 mps 636 mmHg 81%
    08:00 +21°C° 0.1 mm 1 mps 636 mmHg 73%
    09:00 +23°C° 0.1 mm 1 mps 637 mmHg 64%
    10:00 +24°C° 0.4 mm 1 mps 637 mmHg 61%
    11:00 +26°C° 0.4 mm 1 mps 637 mmHg 58%
    12:00 +27°C° 0.4 mm 1 mps 637 mmHg 55%
    13:00 +27°C° 0.3 mm 2 mps 637 mmHg 55%
    14:00 +27°C° 0.3 mm 2 mps 636 mmHg 54%
    15:00 +27°C° 0.3 mm 2 mps 636 mmHg 54%
    16:00 +26°C° 0.6 mm 2 mps 636 mmHg 59%
    17:00 +25°C° 0.6 mm 2 mps 636 mmHg 64%
    18:00 +24°C° 0.6 mm 2 mps 635 mmHg 69%
    19:00 +20°C° 0.5 mm 2 mps 635 mmHg 75%
    20:00 +18°C° 0.5 mm 1 mps 635 mmHg 81%
    21:00 +15°C° 0.5 mm 1 mps 634 mmHg 87%
    22:00 +14°C° 0.3 mm 1 mps 634 mmHg 87%
    23:00 +14°C° 0.3 mm 1 mps 634 mmHg 88%

    30 June, Friday

    Time Temperature Precipitation Wind Pressure Humidity
    00:00 +14°C° 0.3 mm 1 mps 634 mmHg 88%
    01:00 +13°C° 0.2 mm 1 mps 634 mmHg 88%
    02:00 +13°C° 0.2 mm 1 mps 634 mmHg 89%
    03:00 +12°C° 0.2 mm 1 mps 634 mmHg 89%
    04:00 +13°C° 0.3 mm 1 mps 634 mmHg 87%
    05:00 +14°C° 0.3 mm 1 mps 635 mmHg 85%
    06:00 +15°C° 0.3 mm 1 mps 635 mmHg 83%
    07:00 +18°C° 0.2 mm 1 mps 636 mmHg 75%
    08:00 +20°C° 0.2 mm 1 mps 636 mmHg 67%
    09:00 +21°C° 0.2 mm 1 mps 637 mmHg 59%
    10:00 +23°C° 0.1 mm 2 mps 637 mmHg 54%
    11:00 +24°C° 0.1 mm 2 mps 637 mmHg 50%
    12:00 +25°C° 0.1 mm 2 mps 637 mmHg 45%
    13:00 +25°C° 0.2 mm 2 mps 637 mmHg 45%
    14:00 +25°C° 0.2 mm 2 mps 637 mmHg 46%
    15:00 +26°C° 0.2 mm 2 mps 637 mmHg 46%
    16:00 +25°C° 0.2 mm 2 mps 636 mmHg 50%
    17:00 +24°C° 0.2 mm 2 mps 636 mmHg 53%
    18:00 +21°C° 0.2 mm 2 mps 636 mmHg 57%
    19:00 +19°C° 0.1 mm 2 mps 636 mmHg 63%
    20:00 +16°C° 0.1 mm 2 mps 636 mmHg 69%
    21:00 +14°C° 0.1 mm 2 mps 635 mmHg 75%
    22:00 +14°C° 0 mm 2 mps 636 mmHg 73%
    23:00 +13°C° 0 mm 2 mps 636 mmHg 72%

    1 July, Saturday

    Time Temperature Precipitation Wind Pressure Humidity
    00:00 +13°C° 0 mm 2 mps 636 mmHg 70%
    01:00 +13°C° 0 mm 2 mps 636 mmHg 69%
    02:00 +13°C° 0 mm 2 mps 636 mmHg 68%
    03:00 +12°C° 0 mm 2 mps 636 mmHg 67%
    04:00 +13°C° 0 mm 2 mps 636 mmHg 68%
    05:00 +14°C° 0 mm 1 mps 637 mmHg 69%
    06:00 +15°C° 0 mm 1 mps 637 mmHg 70%
    07:00 +17°C° 0 mm 2 mps 638 mmHg 62%
    08:00 +19°C° 0 mm 2 mps 638 mmHg 55%
    09:00 +21°C° 0 mm 2 mps 639 mmHg 47%
    10:00 +23°C° 0 mm 2 mps 639 mmHg 45%
    11:00 +24°C° 0 mm 2 mps 639 mmHg 43%
    12:00 +25°C° 0 mm 2 mps 639 mmHg 40%
    13:00 +25°C° 0 mm 3 mps 639 mmHg 41%
    14:00 +26°C° 0 mm 3 mps 639 mmHg 41%
    15:00 +26°C° 0 mm 3 mps 638 mmHg 42%
    16:00 +25°C° 0.1 mm 3 mps 638 mmHg 46%
    17:00 +24°C° 0.1 mm 2 mps 638 mmHg 50%
    18:00 +23°C° 0.1 mm 2 mps 638 mmHg 54%
    19:00 +19°C° 0.1 mm 2 mps 637 mmHg 62%
    20:00 +16°C° 0.1 mm 2 mps 637 mmHg 71%
    21:00 +13°C° 0.1 mm 1 mps 636 mmHg 79%
    22:00 +13°C° 0 mm 1 mps 636 mmHg 78%
    23:00 +12°C° 0 mm 1 mps 636 mmHg 77%

    2 July, Sunday

    Time Temperature Precipitation Wind Pressure Humidity
    00:00 +12°C° 0 mm 1 mps 636 mmHg 77%
    01:00 +12°C° 0 mm 1 mps 636 mmHg 76%
    02:00 +11°C° 0 mm 1 mps 636 mmHg 76%
    03:00 +11°C° 0 mm 1 mps 636 mmHg 76%
    04:00 +12°C° 0 mm 1 mps 636 mmHg 73%
    05:00 +13°C° 0 mm 1 mps 637 mmHg 70%
    06:00 +15°C° 0 mm 1 mps 637 mmHg 67%
    07:00 +18°C° 0 mm 1 mps 638 mmHg 59%
    08:00 +20°C° 0 mm 1 mps 638 mmHg 50%
    09:00 +23°C° 0 mm 1 mps 639 mmHg 41%
    10:00 +24°C° 0 mm 1 mps 639 mmHg 39%
    11:00 +25°C° 0 mm 2 mps 639 mmHg 38%
    12:00 +27°C° 0 mm 2 mps 639 mmHg 36%
    13:00 +27°C° 0 mm 2 mps 638 mmHg 36%
    14:00 +27°C° 0 mm 2 mps 638 mmHg 37%
    15:00 +28°C° 0 mm 2 mps 638 mmHg 37%
    16:00 +27°C° 0 mm 2 mps 638 mmHg 43%
    17:00 +26°C° 0 mm 2 mps 637 mmHg 48%
    18:00 +25°C° 0 mm 1 mps 637 mmHg 53%
    19:00 +22°C° 0.1 mm 1 mps 636 mmHg 63%
    20:00 +19°C° 0.1 mm 1 mps 636 mmHg 72%
    21:00 +15°C° 0.1 mm 1 mps 635 mmHg 82%
    22:00 +14°C° 0 mm 1 mps 635 mmHg 81%
    23:00 +14°C° 0 mm 1 mps 635 mmHg 79%
    Show more